Tracking 28790 objects as of 18-Apr-2024
HD Live streaming from Space Station
objects crossing your sky now

ASTRA 1E

Track ASTRA 1E now!
ASTRA 1E is classified as:


NORAD ID: 23686
Int'l Code: 1995-055A
Perigee: 36,172.8 km
Apogee: 36,255.6 km
Inclination: 10.0 °
Period: 1,457.6 minutes
Semi major axis: 42585 km
RCS: 60.6976 m2 (large)
Launch date: October 19, 1995
Source: SOCIETE EUROPEENNE DES SATELLITES (SES)
Launch site: FRENCH GUIANA (FRGUI)

54 to 108 digital TV programs to W. Europe; 18 Ku-band transponders; backup for 1B, 1C or 1D
Your satellite tracking list
Your tracking list is empty




NASA's NSSDC Master Catalog

Two Line Element Set (TLE):
1 23686U 95055A   24108.93231755  .00000039  00000-0  00000-0 0  9991
2 23686   9.9927  46.5150 0009725 353.0389 197.0020  0.98790548103966
Source of the keplerian elements: AFSPC